Home > Time Zones > World Clock > Weather > India > Bundi > Past weeks

Flag for India Weather past 2 weeks in Bundi, Rajasthan, India

Now
95 °F

Broken clouds.


Feels Like: 103 °F
Forecast: 81 / 97 °F
Wind: 5 mph from West

Location: Jaipur / Sanganer

Current Time: Aug 28, 2015 at 3:10:59 PM

Latest Report: Aug 28, 2015 at 1:00 PM


Visibility: 2 mi

Pressure: 29.71 "Hg

Humidity: 47%

Dew point: 72 °F

Location of BundiLocation

Historic Weather in Bundi — Graph

°F

Bundi temperature yesterday

Maximum temperature yesterday: 97 °F (at 2:00 PM)
Minimum temperature yesterday: 81 °F (at 6:00 AM)
Average temperature yesterday: 89 °F

Past Weeks' High & Low Weather Summary

 TemperatureHumidityPressure
High97 °F (Aug 27, 2:00 PM)100% (Aug 15, 2:00 AM)29.95 "Hg (Aug 15, 2:00 AM)
Low77 °F (Aug 16, 2:00 AM)44% (Aug 27, 2:00 PM)29.62 "Hg (Aug 13, 4:00 PM)
Average85 °F73%29.70 "Hg
* Reported Aug 13 1:00 PM — Aug 28 1:00 PM, Bundi, Weather by CustomWeather, © 2015

Note: Actual official high and low records may vary slightly from our data, if they occured in-between our weather recording intervals... More about our weather records

Advertising

Bundi weather history for previous 24 hours

 ConditionsComfort  
Time TempWeatherWind HumidityBarometerVisibility
1:00 PM
Fri, Aug 28
95 °FBroken clouds.5 mph47%29.71 "Hg2 mi
12:30 PM95 °FBroken clouds.6 mph50%29.71 "Hg2 mi
12:00 PM95 °FScattered clouds.5 mph50%29.74 "Hg2 mi
11:30 AM93 °FBroken clouds.3 mph53%29.74 "Hg2 mi
11:00 AM91 °FScattered clouds.5 mph52%29.74 "Hg2 mi
10:00 AM88 °FScattered clouds.6 mph59%29.77 "Hg2 mi
9:30 AM86 °FScattered clouds.6 mph62%29.77 "Hg2 mi
9:00 AM86 °FScattered clouds.6 mph62%29.74 "Hg2 mi
8:30 AM84 °FScattered clouds.5 mph66%29.74 "Hg2 mi
8:00 AM84 °FScattered clouds.6 mph70%29.74 "Hg2 mi
7:00 AM81 °FScattered clouds.5 mph79%29.74 "Hg2 mi
5:30 AM81 °FPassing clouds.3 mph79%29.68 "Hg2 mi
5:00 AM77 °FPassing clouds.5 mph89%29.68 "Hg2 mi
4:00 AM84 °FPassing clouds.5 mph70%29.65 "Hg2 mi
3:00 AM84 °FPassing clouds.5 mph70%29.68 "Hg2 mi
2:00 AM84 °FPassing clouds.6 mph70%29.68 "Hg2 mi
1:00 AM84 °FPassing clouds.5 mph70%29.68 "Hg2 mi
12:00 AM86 °FPassing clouds.3 mph66%29.71 "Hg2 mi
11:00 PM
Thu, Aug 27
86 °FPassing clouds.7 mph62%29.71 "Hg2 mi
10:00 PM88 °FPassing clouds.3 mph59%29.71 "Hg2 mi
7:00 PM91 °FScattered clouds.5 mph56%29.62 "Hg2 mi
6:00 PM93 °FScattered clouds.3 mph49%29.62 "Hg2 mi
5:30 PM93 °FScattered clouds.3 mph49%29.62 "Hg2 mi
5:00 PM95 °FScattered clouds.5 mph50%29.62 "Hg2 mi
4:30 PM95 °FScattered clouds.6 mph50%29.62 "Hg2 mi
4:00 PM93 °FScattered clouds.6 mph53%29.62 "Hg2 mi
3:00 PM95 °FScattered clouds.5 mph50%29.65 "Hg2 mi
Weather by CustomWeather, © 2015

See weather overviewHow to use our weather pages